Regional Weather Roundup
Issued by NWS

Home | Current Version | Previous Version | Text Only | Print | Product List | Glossary Off
Versions: 1 2 3 4 5 6 7 8 9 10 11 12 13 14 15 16 17 18 19 20 21 22 23 24 25 26 27 28 29 30 31 32 33 34 35 36 37 38 39 40 41 42 43 44 45 46 47 48 49 50

000
ASUS43 KMKX 230100
RWRWI

WISCONSIN REGIONAL WEATHER ROUNDUP
NATIONAL WEATHER SERVICE MILWAUKEE/SULLIVAN WI
800 PM CDT TUE APR 22 2014

NOTE: "FAIR" INDICATES FEW OR NO CLOUDS BELOW 12,000 FEET WITH NO
SIGNIFICANT WEATHER AND/OR OBSTRUCTIONS TO VISIBILITY.

WIZ001-002-006>008-014>016-023>028-230200-
NORTHWEST WISCONSIN

CITY           SKY/WX    TMP DP  RH WIND       PRES   REMARKS
SUPERIOR ARPT  CLEAR     50  23  33 E3        30.05S
ASHLAND        CLEAR     44  24  45 E3        30.08S
HAYWARD        CLEAR     46  20  35 CALM      30.06S
SIREN          CLEAR     51  20  29 NE3       30.05S
RICE LAKE      CLEAR     49  24  38 N8        30.06S
LADYSMITH      CLEAR     48  24  39 N8        30.07S
EAU CLAIRE     NOT AVBL
MENOMONIE      CLEAR     53  21  28 N8        30.05S
NEW RICHMOND   CLEAR     51  22  32 NE5       30.05S
OSCEOLA        PTCLDY    52  24  33 NE5       30.07S
$$

WIZ003>005-009-010-017-018-230200-
NORTH CENTRAL WISCONSIN

CITY           SKY/WX    TMP DP  RH WIND       PRES   REMARKS
WOODRUFF       CLEAR     42  24  49 N8        30.05F
RHINELANDER    CLEAR     40  23  50 N3        30.05F
EAGLE RIVER    CLEAR     39  23  52 N8        30.05S WCI  34
LAND O LAKES   CLEAR     40  26  57 N7        30.06S WCI  35
PHILLIPS       CLEAR     44  25  47 N6        30.05S
TOMAHAWK       CLEAR     42  24  48 CALM      30.05S
MEDFORD        CLEAR     44  24  45 N9        30.04S
MERRILL        CLEAR     43  26  50 N7        30.05S
$$

WIZ029-030-035-036-043>047-230200-
CENTRAL WISCONSIN

CITY           SKY/WX    TMP DP  RH WIND       PRES   REMARKS
WAUSAU         CLEAR     45  24  43 N9        30.03S
MOSINEE        NOT AVBL
MARSHFIELD     CLEAR     46  23  40 N9        30.04S
STEVENS POINT  CLEAR     45  23  42 N12G18    30.05R
WAUPACA        CLEAR     50  25  37 N10       30.03S
WAUTOMA        NOT AVBL
WISC RAPIDS    CLEAR     47  24  40 N9        30.05R
CAMP DOUGLAS   NOT AVBL
$$

WIZ011>013-019>022-031-037>040-048>050-230200-
NORTHEAST WISCONSIN

CITY           SKY/WX    TMP DP  RH WIND       PRES   REMARKS
ANTIGO         CLEAR     40  27  59 N10       30.04F WCI  33
STURGEON BAY   CLOUDY    39  27  60 N14       30.05R WCI  31
GREEN BAY      CLEAR     43  29  57 N13       30.05R
MANITOWOC      NOT AVBL
APPLETON       PTCLDY    45  27  49 N12G20    30.04R
CLINTONVILLE   CLEAR     46  27  46 N13       30.04R
OSHKOSH        CLEAR     46  25  43 N12       30.03R
$$

WIZ032>034-041-042-053>061-230200-
SOUTHWEST WISCONSIN

CITY           SKY/WX    TMP DP  RH WIND       PRES   REMARKS
LA CROSSE      CLEAR     52  23  32 N6        30.03S
SPARTA         CLEAR     52  21  29 N6        30.04S
VIROQUA        FAIR      49  26  41 N6        30.03R
BOSCOBEL       CLEAR     55  21  26 N7        30.03R
PRAIRIE DU CHI CLEAR     55  24  29 NW6       30.01S
PLATTEVILLE    FAIR      53  25  34 NW5       30.02R
$$

WIZ056-057-062-063-064-067-068-230200-
SOUTH CENTRAL WISCONSIN

CITY           SKY/WX    TMP DP  RH WIND       PRES   REMARKS
BARABOO/DELLS  PTCLDY    51  24  34 N7        30.02S
LONE ROCK      NOT AVBL
WATERTOWN      CLEAR     48  30  49 NE7       30.01R
MADISON        PTCLDY    50  26  39 N7        30.01R
MIDDLETON      FAIR      51  23  33 N9        30.01R
MONROE         PTCLDY    53  24  32 N8        29.99S
JANESVILLE     CLEAR     54  19  26 N8        29.99R
$$

WIZ051-052-058>065-066-070>072-230200-
SOUTHEAST WISCONSIN

CITY           SKY/WX    TMP DP  RH WIND       PRES   REMARKS
MILWAUKEE      PTCLDY    40  29  64 NE9       30.04R WCI  34
WAUKESHA       CLEAR     41  28  60 E12       30.02R
MILWAUKEE/TIMM NOT AVBL
RACINE         CLEAR     40  28  62 NE14      30.04S WCI  32
BURLINGTON     CLEAR     43  30  61 E16       30.02R
KENOSHA        CLEAR     38  28  67 E8        30.03R WCI  32
FOND DU LAC    CLEAR     45  27  49 N7        30.03R
SHEBOYGAN      CLEAR     43  27  53 N6        30.02R
WEST BEND      CLEAR     45  27  49 N8        30.01R
JUNEAU         CLEAR     47  23  38 N9        30.02S
$$

LSZ147-162-230200-
LAKE SUPERIOR

STATION/POSITION TIME  TEMP    WIND        PRES    WAVE
                       AIR SEA DIR/SP/G            HT/PER
                 (UTC) (F)     (DEG/KT/KT) (MB)    (FT/S)
DEVILS ISLAND    0000   41     120/  6/  9 1019.0S
PORT WING        0000   46      50/  4/  6 1018.3F
SAXON HARBOR     0030           CALM  / 20 1018.3F
$$

LMZ867-665-643>646-230200-
LAKE MICHIGAN

STATION/POSITION TIME  TEMP    WIND        PRES    WAVE
                       AIR SEA DIR/SP/G            HT/PER
                 (UTC) (F)     (DEG/KT/KT) (MB)    (FT/S)
NORTHPORT PIER   0000   35     340/ 15/ 18 1017.3
SISTER BAY       2354   38     360/ 18/ 25   N/A
KEWAUNEE LAKESHO 0000   45     350/ 10/ 15 1017.5R
SHEBOYGAN LAKESH 0000   44      10/ 17/ 18 1017.1R
PORT WASHINGTON  0040   44      40/  9/ 11 1017.3R
MILWAUKEE LAKESH 0000   40      30/  8/ 11   N/A
KENOSHA   LAKESH 0000   43      80/  2/  4   N/A
$$

TC  - TEMPERATURE IN CELSIUS
VSB - VISIBILITY IN STATUTE MILES
WCI - WIND CHILL INDEX
HX  - HEAT INDEX




USA.gov is the U.S. government's official web portal to all federal, state and local government web resources and services.